{"data":{"norad_id":51754,"intl_designator":"2022-016AS","name":"STARLINK-3457","alt_names":[],"object_type":"PAYLOAD","status":"ACTIVE","operator":null,"country":"US","launch_date":"2022-02-21","launch_site_code":"AFETR","launch_vehicle":null,"mission":null,"orbit_class":"UNKNOWN","rcs_meters":null,"size_class":null,"mass_kg":null,"dimensions":null,"purposes":["comms"],"wikipedia_slug":null,"has_3d_model":false,"image_url":null,"decayed_at":null,"tle_current":{"epoch":"2026-05-24T18:39:43.795872Z","epoch_age_seconds":98283,"freshness":"FRESH","line1":"1 51754U 22016AS  26144.77759023 -.00001708  00000+0 -89255-4 0  9990","line2":"2 51754  53.2165 327.3081 0001012  89.4141 270.6967 15.08835283235191","mean_motion":15.08835283,"eccentricity":0.0001012,"inclination_deg":53.2165,"raan_deg":327.3081,"arg_perigee_deg":89.4141,"mean_anomaly_deg":270.6967,"bstar":-8.9255e-5,"rev_number":23519,"period_min":95.437853039655,"perigee_km":539.05771602913,"apogee_km":540.45789793807,"semimajor_km":6917.8948069836,"source":"CELESTRAK","updated_at":"2026-05-25T13:38:16.948071Z"}}}